FENGYUN 1C DEB

Satellite information

Favourite Embed

Satellite Type and Status

DEBRISIN ORBIT

Key statistics

Satellite FENGYUN 1C DEB at a glance.

Uptime

9715

Days in orbit

Revolutions

≈ 13.9

Per day

Orbit

SSO

Sun Synchronous Orbit

Inclination

98.5

Latest

Satellite identification and parameters

Extended collection of information and parameters for FENGYUN 1C DEB.

Object identification

Identified? True

Debris? True

Object name: FENGYUN 1C DEB

International designator: 1999-025CWG

Object number (NORAD): 32234

Object ID (CCSDS): 32234

Country: PEOPLES REPUBLIC OF CHINA (PRC)

Current information (Y/N): Y

RCS size: SMALL

Orbital parameters

Period: 103.291 minutes

Inclination: 98.5287 deg

SMA: 7292.364 km

Apoapsis: 1014.507 km

Periapsis: 813.951 km

RAAN: 195.9219 deg

Eccentricy: 0.01375114

Argument of periapsis: 338.147 deg

Mean anomaly: 21.3862 deg

Mean motion: 13.94120362 rev/day

Mean motion (dot): 0.00002936 rev/day2

B* drag term: 0.0020757912 1/REarth

Two-line elements (TLE)

Creation date: Dec. 12, 2025, 10:14 a.m.

Reference frame: TEME

Reference center: EARTH

Epoch: Dec. 12, 2025, 12:21 a.m. UTC

TLE line 0: 0 FENGYUN 1C DEB

TLE line 1: 1 32234U 99025CWG 25346.01504214 .00002936 00000-0 20758-2 0 9990

TLE line 2: 2 32234 98.5287 195.9219 0137511 338.1470 21.3862 13.94120362931999

Live tracking on map

Real-time ground track for satellite FENGYUN 1C DEB.

In-orbit conjunctions

A list of the most updated potential collisions computed for object FENGYUN 1C DEB.

Target Orbit TCA Probability of collision Miss distance Type
SL-14 R/B LEO 2025-10-28 09:40:33 0.0001134351 347.0 (m) ROCKET BODY
COSMOS 2389 LEO 2025-10-08 04:21:31 0.0001273076 577.0 (m) PAYLOAD

Associated space launch

Chinese polar orbiting meteorological satellite

FENGYUN 1C DEB was lifted into orbit during the mission ‘Long March 4B | Feng Yun 1C’, on board a Long March 4B space rocket.

The launch took place on May 10, 1999, 1:33 a.m. from Launch Complex 7.

For more information about the launch, click the button.

Launch to space Long March 4B | Feng Yun 1C
Long March 4B | Feng Yun 1C

Agency: N/A

Status: Launch Successful

Launch date: May 10, 1999, 1:33 a.m. UTC

Rocket: Long March 4B

Launch pad: Launch Complex 7

Location: Taiyuan Satellite Launch Center, People's Republic of China

...

Latest news about this satellite

There are no fresh news available about this satellite. Check back as we update our databases every day.


Newsletter sign-up

Weekly statistics, charts and insights to help you stay on top of the space industry.